Powrót do katalogu

NOAA 17 DEB

AktywnyPO
NORAD 48723·DEBRIS·🇺🇸 United States

Wystrzelony Jun 24, 2002 z Vandenberg Space Force Base

Loading…

Następne Przeloty (najbliższe 24 godziny)

TLE

ŚwieżeSource: Space-Track

Epoka: Sep 13, 2026, 10:48 UTC

1 48723U 02032BG  26256.45058154  .00004298  00000-0  10853-2 0  9996
2 48723  98.8199 253.4429 0020033 341.5447  18.5017 14.51465057287260

Śledź NOAA 17 DEB w czasie rzeczywistym z AllMySat

Download on the App Store